sat.trackr.live / text

‹ back to catalog

QIANFAN-63

NORAD 62793 · 2025-016J

PAYLOAD ACTIVE UNKNOWN

§ Identity

Operator
Country
PRC
Launch date
2025-01-23
Launch site
TAISC
Launch vehicle
Mass (kg)
RCS (m²)

External: N2YO · Heavens-Above · Gunter

§ Orbital elements

Epoch: 2026-09-22T20:57:03.751776Z

Period
106.59 min
Inclination
88.9673°
Eccentricity
0.0014488
Mean motion
13.51023193 rev/d
Perigee alt
1,057.7 km
Apogee alt
1,079.3 km
Semi-major
7,446.6 km
B*
6.7953e-5
RAAN
73.5571°
Arg perigee
244.8970°
Mean anomaly
115.0678°
Rev number
8,563

§ Raw data

QIANFAN-631 62793U 25016J   26265.87296009  .00000056  00000+0  67953-4 0  99972 62793  88.9673  73.5571 0014488 244.8970 115.0678 13.51023193 85635

JSON: /api/v1/satellites/62793 · /tle

For live sub-satellite position, see the globe view (requires WebGL).

§ Visibility from observer

Set your observer location to see the next 7 days of passes ≥ 10°. The values pass through the URL so the page stays shareable.

No JS? Fill the form by hand. The geolocation button needs JavaScript.